Tracking 30995 objects as of 5-Jul-2025
HD Live streaming from Space Station
objects crossing your sky now

CUBESX-HSE-3

Track CUBESX-HSE-3 now!
10-day predictions
CUBESX-HSE-3 is classified as:


NORAD ID: 57178
Int'l Code: 2023-091N
Perigee: 501.0 km
Apogee: 518.1 km
Inclination: 97.6 °
Period: 94.7 minutes
Semi major axis: 6880 km
RCS: Unknown
Launch date: June 27, 2023
Source: (TBD)
Launch site: VOSTOCHNY COSMODROME (VOSTO)

Uplink (MHz):
Downlink (MHz): 436.570
Beacon (MHz):
Mode: 2k4/4k8*/9k6 GMSK_USP
Call sign: RS42S
Status: Active

Your satellite tracking list
Your tracking list is empty




NASA's NSSDC Master Catalog

Two Line Element Set (TLE):
1 57178U 23091N   25186.57513135  .00008587  00000-0  38802-3 0  9997
2 57178  97.5600 244.4115 0012421 226.5102 133.5101 15.21133883111569
Source of the keplerian elements: AFSPC